Printer-friendly version

IAU Minor Planet Center

Minor Planet Center

MPEC 2005-G81 : 2005 GW119

The following Minor Planet Electronic Circular may be linked-to from your own Web pages, but must not otherwise be redistributed electronically.


Read MPEC 2005-G80 Read MPEC 2005-G82


M.P.E.C. 2005-G81                                Issued 2005 Apr. 12, 23:49 UT

     The Minor Planet Electronic Circulars contain information on unusual
         minor planets and routine data on comets.  They are published
   on behalf of Commission 20 of the International Astronomical Union by the
          Minor Planet Center, Smithsonian Astrophysical Observatory,
                          Cambridge, MA 02138, U.S.A.

                  Supported in part by the Brinson Foundation
             Prepared using the Tamkin Foundation Computer Network

                              MPC@CFA.HARVARD.EDU
          URL http://cfa-www.harvard.edu/iau/mpc.html  ISSN 1523-6714

                                  2005 GW119

Observations:
     K05GB9W* C2005 04 10.35626 14 17 11.99 -10 04 18.9          20.2 R EG081G96
     K05GB9W  C2005 04 10.36288 14 17 11.46 -10 04 15.3          20.3 R EG081G96
     K05GB9W  C2005 04 10.36950 14 17 10.94 -10 04 11.8          19.4 R EG081G96
     K05GB9W  C2005 04 10.37612 14 17 10.42 -10 04 08.1          19.2 R EG081G96
     K05GB9W  C2005 04 11.35883 14 15 54.62 -09 55 27.8          19.2 R EG081G96
     K05GB9W  C2005 04 11.36572 14 15 54.04 -09 55 24.9          19.6 R EG081G96
     K05GB9W  C2005 04 11.37256 14 15 53.52 -09 55 21.0          20.2 R EG081G96
     K05GB9W  C2005 04 11.37932 14 15 52.96 -09 55 17.4          20.9 R EG081G96
     K05GB9W  C2005 04 11.48044 14 15 45.45 -09 54 11.7          19.7 R EG081474
     K05GB9W  C2005 04 11.48264 14 15 45.26 -09 54 10.8          19.8 R EG081474
     K05GB9W  C2005 04 11.48461 14 15 45.08 -09 54 09.6          19.7 R EG081474
     K05GB9W  C2005 04 11.48646 14 15 44.93 -09 54 08.7          19.7 R EG081474
     K05GB9W  C2005 04 12.32779 14 14 38.89 -09 46 51.3          19.8 R EG081G96
     K05GB9W  C2005 04 12.32924 14 14 38.73 -09 46 50.5          19.8 R EG081G96
     K05GB9W  C2005 04 12.33068 14 14 38.65 -09 46 49.9          20.0 R EG081G96
     K05GB9W  C2005 04 12.33212 14 14 38.55 -09 46 48.5          19.8 R EG081G96
     K05GB9W  C2005 04 12.33438 14 14 38.37 -09 46 47.8          19.8 R EG081G96
     K05GB9W  C2005 04 12.33625 14 14 38.20 -09 46 46.6          20.3 R EG081G96
     K05GB9W  C2005 04 12.33814 14 14 38.04 -09 46 45.6          19.7 R EG081G96
     K05GB9W  C2005 04 12.33999 14 14 37.90 -09 46 44.7          20.2 R EG081G96
     K05GB9W  C2005 04 12.34331 14 14 37.63 -09 46 42.9          20.0 R EG081G96
     K05GB9W  C2005 04 12.34708 14 14 37.32 -09 46 40.6          19.5 R EG081G96
     K05GB9W  C2005 04 12.35087 14 14 37.01 -09 46 38.6          20.2 R EG081G96
     K05GB9W  C2005 04 12.35471 14 14 36.68 -09 46 37.0          20.5 R EG081G96

Observer details:
474 Mount John Observatory, Lake Tekapo.  Observer A. C. Gilmore.  Measurer
    P. M. Kilmartin.  1.0-m f/7.7 reflector + CCD.
G96 Mt. Lemmon Survey.  Observer A. Grauer.  Measurers E. C. Beshore,
    C. M. Casey, E. J. Christensen, G. J. Garradd, A. Grauer, R. E. Hill,
    S. M. Larson, R. H. McNaught.  1.5-m reflector + CCD.

Orbital elements:
2005 GW119
Epoch 2005 Mar. 31.0 TT = JDT 2453460.5                 MPC
M 138.15634              (2000.0)            P               Q
n   0.47410688     Peri.  242.73934     +0.60787964     -0.79398367
a   1.6288655      Node   169.81120     +0.74444756     +0.56616460
e   0.2168424      Incl.    2.75495     +0.27618868     +0.22146690
P   2.08           H   18.5           G   0.15
From 24 observations 2005 Apr. 10-12.

Ephemeris:
2005 GW119               a,e,i = 1.63, 0.22, 3                   q = 1.2757
Date    TT    R. A. (2000) Decl.     Delta      r     Elong.  Phase     V
2005 04 10    14 17.65   -10 07.3    0.949    1.932   164.2     8.1    20.4
2005 04 20    14 04.25   -08 37.5    0.941    1.944   175.8     2.2    20.1
2005 04 30    13 50.75   -07 11.4    0.958    1.954   168.0     6.2    20.3
2005 05 10    13 39.03   -06 00.3    0.999    1.963   155.5    12.3    20.7
2005 05 20    13 30.46   -05 12.5    1.062    1.970   143.6    17.7    21.0
2005 05 30    13 25.62   -04 50.5    1.141    1.976   132.9    22.1    21.3
2005 06 09    13 24.51   -04 53.2    1.233    1.979   123.1    25.5    21.6
2005 06 19    13 26.85   -05 17.5    1.334    1.982   114.2    27.9    21.8

Timothy B. Spahr             (C) Copyright 2005 MPC           M.P.E.C. 2005-G81

Read MPEC 2005-G80 Read MPEC 2005-G82


Our Web policy. Index to the CBAT/MPC/ICQ pages.


Valid HTML 4.01!